Regional Weather Roundup
Issued by NWS

Home | Current Version | Previous Version | Text Only | Print | Product List | Glossary Off
Versions: 1 2 3 4 5 6 7 8 9 10 11 12 13 14 15 16 17 18 19 20 21 22 23 24 25 26 27 28 29 30 31 32 33 34 35 36 37 38 39 40 41 42 43 44 45 46 47 48 49 50

000
ASUS45 KBOU 252207
RWRCO

WEATHER ROUNDUP FOR COLORADO
NATIONAL WEATHER SERVICE DENVER/BOULDER CO
300 PM MST WED FEB 25 2015

NOTE: "FAIR" INDICATES FEW OR NO CLOUDS BELOW 12000 FEET WITH NO
SIGNIFICANT WEATHER AND/OR OBSTRUCTIONS TO VISIBILITY.

COZ001>005-013-030-031-252300-
...NORTHWEST COLORADO...

CITY           SKY/WX    TMP DP  RH WIND       PRES   REMARKS
CRAIG          PTSUNNY   38  26  62 NW13G21   29.95R
HAYDEN         PTSUNNY   34  28  80 W7        29.93S WCI  28
MEEKER         CLOUDY    39  24  55 NW10      29.95F
MOUNT WERNER   NOT AVBL
STEAMBOAT SPGS CLOUDY    32  27  80 CALM      29.92F
WALDEN         CLOUDY    25  21  86 N16       29.90S VSB 3/4 WCI  12
$$

COZ006>008-011-252300-
...WEST CENTRAL VALLEYS...

CITY           SKY/WX    TMP DP  RH WIND       PRES   REMARKS
GRAND JUNCTION MOSUNNY   46  23  40 VRB3      29.95F
MONTROSE       MOSUNNY   38  29  70 SE6       29.99F
EAGLE          PTSUNNY   37  27  65 S8        29.94S
RIFLE          MOSUNNY   45  25  45 MISG      29.95F
DELTA          NOT AVBL
NUCLA          MOSUNNY   41  28  60 E5        30.01F
$$

COZ017>023-064>068-252300-
...SOUTHWEST COLORADO...

CITY           SKY/WX    TMP DP  RH WIND       PRES   REMARKS
DURANGO        PTSUNNY   36  25  64 E8        29.93F
CORTEZ         SUNNY     41  27  57 W8        29.97F
PAGOSA SPRINGS CLOUDY    34  26  70 SW7       29.93F WCI  28
TELLURIDE      LGT SNOW  26  24  91 W16       29.98F WCI  13
WOLF CREEK PAS PTSUNNY   23  14  68 W7        29.94F WCI  15
$$

COZ009-010-012-014-032>034-037-058>063-252300-
...CENTRAL COLORADO...

CITY           SKY/WX    TMP DP  RH WIND       PRES   REMARKS
ASPEN          PTSUNNY   35  21  56 N9G16     29.91S WCI  28
BUENA VISTA    CLOUDY    37   8  30 NW10G18   29.84S
COPPER MTN     SNOW      19  14  79 W22       29.87F VSB 1/4 WCI   3
BERTHOUD PASS  SNOW      10   3  72 NW24G37   29.85S VSB<1/4 WCI -10
COTTONWOOD PAS MOSUNNY   34   3  27 W13G28    29.83S WCI  25
GUNNISON       PTSUNNY   34  21  60 SW15      29.93F WCI  24
KREMMLING      FLURRIES  32  21  64 W5G16     29.92S WCI  27
LEADVILLE      MIX PCPN  26  11  52 W17G29    29.85F WCI  13
MONARCH PASS   CLOUDY    18  14  86 W39G46    29.95F WCI  -4
SALIDA         PTSUNNY   40  17  39 W10G21    29.91R
SUNLIGHT       CLOUDY   N/A N/A N/A CALM        N/A
WILKERSON PASS CLOUDY    27  16  63 SW3       29.88S
$$

COZ069>075-252300-
...SAN LUIS VALLEY/SANGRE DE CRISTO MOUNTAINS...

CITY           SKY/WX    TMP DP  RH WIND       PRES   REMARKS
ALAMOSA        PTSUNNY   31  19  61 SW5       29.89F WCI  26
LA VETA PASS   CLOUDY    27  19  74 NE17G25   29.88S WCI  14
SAGUACHE       PTSUNNY   32  21  64 SE9       29.88F WCI  24
$$

COZ035-036-038>040-252300-
...NORTHERN COLORADO FRONT RANGE...

CITY           SKY/WX    TMP DP  RH WIND       PRES   REMARKS
DENVER INTL AP SNOW      31  30  96 N17       29.94R VSB 1/4 WCI  19
DMNS CITY PARK   N/A     31  31  96 N8G16     29.96R WCI  24
AURORA         LGT SNOW  31  31  99 N10       29.94R VSB 1   WCI  23
FRONT RANGE AP NOT AVBL
ERIE MUNI ARPT SNOW      31  30  97 N13       29.98R VSB 1/2 WCI  21
BOULDER MUN AP SNOW      32  32 100 NE16G25   29.97R VSB 1/4 WCI  21
CENTENNIAL     LGT SNOW  31  29  92 NE10      29.93R VSB 1   WCI  22
BROOMFIELD     SNOW      32  30  93 N13       29.96R VSB 1/2 WCI  22
FORT COLLINS   CLOUDY    34  25  69 N23G30    29.98R WCI  22
LONGMONT       SNOW      33  30  90 N14G21    30.00R VSB 1/2 WCI  23
$$

COZ041-046-047-076>085-087-088-252300-
...PIKES PEAK/PALMER DIVIDE AND SOUTHERN FOOTHILLS...

CITY           SKY/WX    TMP DP  RH WIND       PRES   REMARKS
COLO. SPRINGS  PTSUNNY   35  25  66 NE15      29.90S WCI  25
A. F. ACADEMY  LGT RAIN  32  25  74 N16       29.89S WCI  21
ELLICOTT       NOT AVBL
FALCON         PTSUNNY   33  25  72 N15G21    29.90R WCI  23
FORT CARSON    LGT SNOW  34  32  93 NW7       29.89F FOG     WCI  28
LIMON          PTSUNNY   37  26  64 N20       29.88S
MONUMENT HILL  LGT SNOW  30  25  80 N10       29.89S WCI  21
TRINIDAD       CLOUDY    39  29  67 NE16      29.88R
$$

COZ042>045-048>051-090-091-252300-
...NORTHEAST COLORADO...

CITY           SKY/WX    TMP DP  RH WIND       PRES   REMARKS
GREELEY ARPT   CLOUDY    37  21  52 N25G32    29.94R
AKRON          CLOUDY    36  29  75 N28G33    29.90R
BURLINGTON     CLOUDY    41  32  70 NE17G24   29.88R
WRAY           CLOUDY    40  30  68 N21G26    29.92R
STERLING       CLOUDY    37  30  75 NE18G29   29.93R
HOLYOKE        NOT AVBL
FORT MORGAN    CLOUDY    39  20  46 N25G32    29.92R
$$

COZ086-089-092>099-252300-
...SOUTHEAST COLORADO...

CITY           SKY/WX    TMP DP  RH WIND       PRES   REMARKS
PUEBLO         PTSUNNY   42  31  64 N28       29.90R
LA JUNTA       PTSUNNY   47  32  56 NE23      29.89R
LAMAR          PTSUNNY   46  33  60 N17       29.86R
SPRINGFIELD      N/A     45  33  63 N23G30    29.86S
$$


USA.gov is the U.S. government's official web portal to all federal, state and local government web resources and services.